Погода в Стерлитамаке

Погода в Стерлитамаке : погода сейчас, прогноз погоды и архив. Всё, что Вы хотите узнать о погоде в Стерлитамаке!

Хотите узнать прогноз погоды в Стерлитамаке? Тогда Вам сюда: Погода в Стерлитамаке

Поиск расширенной информации на нашем сайте:

Другие новости

Новости СМИ2

Главная страница сайта

Новости сайта

03.07.2017

Напоминаем, что на нашем специализированном сайте Метеоцентр.Азия вы можете получить высокодетализированные автоматические прогнозы погоды по пунктам России, СНГ и мира в авиационном формате (включающие направление и скорость ветра, видимость, явления погоды, количество и форму облачности, нижнюю и верхнюю границу облачности).

Рекомендуем: см тут аренда офиса в бп курский арма завод Нижний Сусальный пер. на выгодных условиях

Погода в Стерлитамаке - сегодня

Время (UTC), дата Ветер
(°,м/с) 
Видим.   Явления Облачность Т
(°С)
Тd
(°С)
f(%) Тe
(°С)
Pmin
(гПа)
dP
(гПа)
Po
(мм)
O2
(г/м3)
Тmin Tmax R s Состояние
почвы
18 14.08.18 350 (С) 10 км  {гроза, ливн. осадки}  6/6 600 м кучево-дожд. 
[Cb cap]
+17.4 +15 86 +28  1010.4  1.2  746  279           
21 14.08.18 340 (С) 3{11}  10 км    4/3 1000 м средняя 
[Ac trans]
+15.1 +10.6 74 +17  1011.8  1.2  747  283           
00 15.08.18 320 (СЗ) 10 км    ясно 
+12 +9.6 85 +14  1013.4  1.3  748  287           
03 15.08.18 280 (З) 20000 м    1/0 средняя 
[Ac trans]
+13.8 +9.6 76 +16  1014.5  1.3  749  285  +10.7    0.9    влажная 
06 15.08.18 340 (С) 20000 м    3/1 1000 м средняя 
[Cu hum|Ac trans]
+20.1 +11.7 58 +24  1014.6  0.4  749  279           
09 15.08.18 360 (С) 20000 м    4/4 1000 м 
[Cu med, cong]
+23 +6.1 34 +23  1014.9  0.4  749  277           
12 15.08.18 330 (СЗ) 5{10}  20000 м    3/3 1000 м 
[Cu med, cong]
+23.4 +5.9 32 +23  1015.3  0.4  750  277           
15 15.08.18 330 (СЗ) 20000 м    3/1 1000 м верхняя 
[Cu hum|Ci fib]
+21.6 +7.2 39 +22  1016.3  750  279    +23.6       
18 15.08.18 тихо ()   10 км    ясно 
+13.5 +10.2 80 +15  1017.6  0.8  751  286           
21 15.08.18 190 (Ю) 10 км    ясно 
+11.2 +9.2 87 +12  1018.1  0.4  751  289           
00 16.08.18 210 (ЮЗ) 10 км    ясно 
+9.3 +7.3 87 +10  1019.2  0.9  752  292           
03 16.08.18 190 (Ю) 20000 м    ясно 
+11.7 +8.5 81 +12  1019.6  0.5  752  289  +8.6        сухая 
06 16.08.18 170 (Ю) 20000 м    ясно 
+21.5 +10.6 50 +23  1018.6  -0.4  752  279           
09 16.08.18 280 (З) 20000 м    ясно 
+26.4 +5.9 27 +26  1016.7  -1.7  751  275           
12 16.08.18 250 (З) 20000 м    ясно 
+27.8 +6.1 25 +28  1015.4  -1.1  750  273           
15 16.08.18 220 (ЮЗ) 20000 м    ясно 
+25.6 +7.5 32 +26  1014.3  -1.3  749  275    +28.1       
18 16.08.18 тихо ()   10 км    ясно 
+17 +10.6 66 +19  1014.5  -0.2  749  282           
21 16.08.18 300 (СЗ) 10 км    3/0 верхняя 
[Ci fib]
+17.1 +8.5 57 +19  1014.9  0.4  749  283           
00 17.08.18 тихо ()   10 км  {ливн. осадки}  9/9 600 м кучево-дожд. 
[Cb cap]
+15 +11.7 81 +19  1014.1  -0.9  748  284           
03 17.08.18 тихо ()   10 км  в посл. час ливневой дождь{гроза}  9/8 600 м кучево-дожд., средняя 
[Cb cap|Ac trans]
+15 +12.6 86 +20  1014.9  0.8  749  284  +14.5      влажная 
06 17.08.18 350 (С) 4{10}  10 км  {гроза, ливн. осадки}  10/10 600 м кучево-дожд. 
[Cb cap]
+17.5 +13.7 78 +25  1016  1.2  750  281           
09 17.08.18 010 (С) 20000 м    9/9 1000 м кучево-дожд. 
[Cb cap]
+19.8 +11.8 60 +24  1016.1  0.2  750  280           
12 17.08.18 350 (С) 20000 м    9/9 1000 м кучево-дожд. 
[Cb cap]
+19.2 +9.7 54 +21  1016.4  0.2  750  281           
15 17.08.18 050 (СВ) 20000 м    9/3 1000 м кучево-дожд., средняя, верхняя 
[Cb cap|Ac trans|Ci fib]
+18 +9 56 +19  1016.5  750  282    +20.5       
18 17.08.18 010 (С) 10 км    4/0 средняя, верхняя 
[Ac trans|Ci fib]
+15.7 +8.6 63 +16  1016.4  -0.2  750  284           
Время (UTC), дата Ветер
(°,м/с) 
Видим.   Явления Облачность Т
(°С)
Тd
(°С)
f(%) Тe
(°С)
Pmin
(гПа)
dP
(гПа)
Po
(мм)
O2
(г/м3)
Тmin Tmax R s Состояние
почвы

Для получения пояснительной информации подведите курсор к названию столбца.

ПОГОДА в Стерлитамаке - архив

Всё, что Вы хотите узнать о погоде в Стерлитамаке - удобно и подробно!

Выберите нужную дату (начиная с 1 января 2015* года) и нажмите кнопку "Найти".
Будут отображены архивные сводки погоды по пункту Стерлитамак, начиная с указанной даты.


Отображать данные в формате CSV (для использования в таблицах Excel)


Внимание! Наш архив погоды предназначен исключительно для личного некоммерческого использования в познавательных целях. Если Вам необходимы официальные справки о состоянии погоды (для производственных, юридических, коммерческих и т.п. целей), обращайтесь в органы Росгидромета.

*Примечание: данная дата относится к архиву по метеостанциям СССР (Россия, СНГ, Балтия).
Архив по метеостанциям Зарубежной Европы и Азии (кроме Китая) хранится 10 дней, по другим регионам земного шара (Китай, Африка, Америка, Австралия, Океания) - 1 день.

Стерлитамак - район местоположения метеостанции


Название, широта, долгота, высота метеостанции:
Стерлитамак 53.6°ш. 56°д. 137 м над ур. моря [Российская Федерация]

Дополнительная информация

В oтличие oт бoльшинства пoгoдных сайтoв мы публикуем пoдрoбную метеoинфoрмацию в детальнoм прoфессиoнальнoм фoрмате.

Характеристики температуры и влажнoсти вoздуха измеряются на высoте 2 м в тени вдали oт зданий и деревьев.
Скoрoсть ветра измеряется на высoте 10 м (на урoвне рoста челoвека скoрoсть ветра ниже в 1.5-2 раза). Если метеoстанция нахoдится в гoрoде или в лесу, тo скoрoсть ветра занижена на 2-4 м/с пo сравнению с oткрытым местoм. Скoрoсть ветра над акватoриями крупных рек и oзёр, а также на вершинах хoлмoв на 2-5 м/с выше, чем в oбычных услoвиях.
Атмoсфернoе давление в разных тoчках местнoсти мoжет значительнo oтличаться oт давления на метеoстанции, в зависимoсти oт услoвий рельефа (при пoдъёме на 10 м давление пoнижается примернo на 1 мм рт.ст.).